Radiation Dose measured at exhaust stack monitor of Fukushima Daiichi Nuclear Power Station
Date,Time,Unit 5 6 shared exhaust cylinders,Wind Direction,Wind Velocity(m/s)
2021/06/17,00:00,3.8,north-northeast,4.7
2021/06/17,00:10,3.9,north-northeast,4.8
2021/06/17,00:20,3.9,north,4.7
2021/06/17,00:30,3.8,north-northeast,5.3
2021/06/17,00:40,3.8,north-northeast,5.3
2021/06/17,00:50,3.8,north-northeast,4.8
2021/06/17,01:00,3.7,north-northeast,4.4
2021/06/17,01:10,4.0,north-northeast,4.2
2021/06/17,01:20,4.0,north-northeast,4.3
2021/06/17,01:30,3.8,north,4.6
2021/06/17,01:40,3.9,north-northeast,3.7
2021/06/17,01:50,3.9,north,3.3
2021/06/17,02:00,3.9,north,3.5
2021/06/17,02:10,4.0,north-northeast,3.3
2021/06/17,02:20,4.1,north-northeast,2.6
2021/06/17,02:30,3.8,north,2.3
2021/06/17,02:40,3.9,north-northeast,2.3
2021/06/17,02:50,3.8,northeast,3.2
2021/06/17,03:00,3.8,east-northeast,3.3
2021/06/17,03:10,3.8,east-northeast,3.8
2021/06/17,03:20,3.8,north-northeast,3.6
2021/06/17,03:30,3.9,northeast,3.1
2021/06/17,03:40,4.1,north-northeast,2.9
2021/06/17,03:50,3.9,north-northeast,3.5
2021/06/17,04:00,4.0,northeast,3.1
2021/06/17,04:10,3.9,north-northeast,3.3
2021/06/17,04:20,3.9,northeast,3.7
2021/06/17,04:30,4.1,northeast,4.4
2021/06/17,04:40,3.8,northeast,3.2
2021/06/17,04:50,3.9,northeast,4.3
2021/06/17,05:00,4.0,northeast,4.3
2021/06/17,05:10,3.9,northeast,4.0
2021/06/17,05:20,4.0,northeast,4.9
2021/06/17,05:30,3.9,northeast,5.5
2021/06/17,05:40,4.0,northeast,5.9
2021/06/17,05:50,4.0,northeast,5.6
2021/06/17,06:00,3.7,northeast,5.7
2021/06/17,06:10,3.9,northeast,3.9
2021/06/17,06:20,3.8,northeast,4.8
2021/06/17,06:30,3.8,northeast,4.9
2021/06/17,06:40,3.9,north-northeast,5.2
2021/06/17,06:50,3.8,north-northeast,5.0
2021/06/17,07:00,3.9,north-northeast,5.3
2021/06/17,07:10,3.9,north-northeast,4.9
2021/06/17,07:20,3.9,north-northeast,5.2
2021/06/17,07:30,3.8,north-northeast,5.4
2021/06/17,07:40,4.0,north-northeast,6.0
2021/06/17,07:50,3.8,north-northeast,6.3
2021/06/17,08:00,3.8,north-northeast,5.8
2021/06/17,08:10,4.0,north-northeast,6.1
2021/06/17,08:20,3.8,north-northeast,6.9
2021/06/17,08:30,3.9,north-northeast,6.7
2021/06/17,08:40,3.6,north-northeast,6.6
2021/06/17,08:50,3.6,north-northeast,6.8
2021/06/17,09:00,3.9,north-northeast,6.2
2021/06/17,09:10,4.0,north-northeast,6.3
2021/06/17,09:20,3.8,north-northeast,6.6
2021/06/17,09:30,3.9,north-northeast,6.9
2021/06/17,09:40,3.8,north-northeast,7.3
2021/06/17,09:50,4.0,north-northeast,6.9
2021/06/17,10:00,3.9,north-northeast,6.2
2021/06/17,10:10,3.8,north-northeast,7.0
2021/06/17,10:20,3.8,north-northeast,7.2
2021/06/17,10:30,3.9,north-northeast,7.4
2021/06/17,10:40,3.9,north-northeast,7.3
2021/06/17,10:50,3.9,north-northeast,7.9
2021/06/17,11:00,3.9,north-northeast,7.6
2021/06/17,11:10,4.0,north-northeast,8.1
2021/06/17,11:20,4.0,north-northeast,8.3
2021/06/17,11:30,3.9,north-northeast,7.8
2021/06/17,11:40,4.1,north-northeast,8.0
2021/06/17,11:50,3.8,north-northeast,8.7
2021/06/17,12:00,4.0,north-northeast,8.6
2021/06/17,12:10,3.9,north-northeast,8.5
2021/06/17,12:20,3.8,north-northeast,8.2
2021/06/17,12:30,4.0,north-northeast,7.8
2021/06/17,12:40,3.8,north-northeast,7.4
2021/06/17,12:50,3.9,north-northeast,7.8
2021/06/17,13:00,4.1,north-northeast,7.8
2021/06/17,13:10,3.8,north-northeast,7.2
2021/06/17,13:20,3.8,north-northeast,6.9
2021/06/17,13:30,3.9,north-northeast,6.1
2021/06/17,13:40,3.9,north-northeast,6.6
2021/06/17,13:50,4.0,north-northeast,6.6
2021/06/17,14:00,3.9,north-northeast,6.6
2021/06/17,14:10,3.9,north-northeast,6.6
2021/06/17,14:20,3.9,north-northeast,6.5
2021/06/17,14:30,3.7,north-northeast,6.3
2021/06/17,14:40,3.8,north-northeast,6.5
2021/06/17,14:50,4.0,north-northeast,7.1
2021/06/17,15:00,3.9,north-northeast,6.6
2021/06/17,15:10,4.0,north-northeast,6.5
2021/06/17,15:20,3.8,north-northeast,6.6
2021/06/17,15:30,3.8,north-northeast,6.3
2021/06/17,15:40,3.9,north-northeast,6.5
2021/06/17,15:50,3.7,north-northeast,6.5
2021/06/17,16:00,4.0,north-northeast,6.5
2021/06/17,16:10,4.0,north-northeast,6.3
2021/06/17,16:20,3.9,north-northeast,6.0
2021/06/17,16:30,3.8,north-northeast,6.0
2021/06/17,16:40,4.0,north-northeast,6.0
2021/06/17,16:50,3.9,north-northeast,6.1
2021/06/17,17:00,4.0,north-northeast,6.4
2021/06/17,17:10,4.0,north-northeast,6.0
2021/06/17,17:20,3.8,north-northeast,5.6
2021/06/17,17:30,4.0,north-northeast,6.0
2021/06/17,17:40,4.0,north-northeast,5.4
2021/06/17,17:50,4.1,north-northeast,5.5
2021/06/17,18:00,3.9,north-northeast,5.4
2021/06/17,18:10,4.0,north-northeast,4.9
2021/06/17,18:20,4.0,north-northeast,4.6
2021/06/17,18:30,3.8,north-northeast,4.4
2021/06/17,18:40,3.7,north-northeast,4.8
2021/06/17,18:50,3.9,north-northeast,4.5
2021/06/17,19:00,4.0,north-northeast,4.4
2021/06/17,19:10,3.9,north-northeast,4.9
2021/06/17,19:20,4.0,north,3.7
2021/06/17,19:30,3.6,north,4.1
2021/06/17,19:40,3.8,north,4.2
2021/06/17,19:50,3.8,north,3.3
2021/06/17,20:00,3.9,north-northwest,3.3
2021/06/17,20:10,3.9,north-northwest,3.9
2021/06/17,20:20,3.8,north-northwest,4.2
2021/06/17,20:30,4.0,north-northwest,4.9
2021/06/17,20:40,4.0,north,4.5
2021/06/17,20:50,4.1,north,4.3
2021/06/17,21:00,3.9,north,4.8
2021/06/17,21:10,3.7,north,5.0
2021/06/17,21:20,3.8,north,4.3
2021/06/17,21:30,3.9,north,4.9
2021/06/17,21:40,4.0,north,4.8
2021/06/17,21:50,4.0,north,4.3
2021/06/17,22:00,3.9,north,3.4
2021/06/17,22:10,3.9,north,3.3
2021/06/17,22:20,3.9,north-northwest,2.3
2021/06/17,22:30,3.9,north-northwest,3.4
2021/06/17,22:40,3.7,north,3.6
2021/06/17,22:50,3.8,north-northeast,4.1
2021/06/17,23:00,4.0,north-northeast,3.9
2021/06/17,23:10,3.9,north,3.9
2021/06/17,23:20,4.0,north,3.6
2021/06/17,23:30,4.0,north,3.1
2021/06/17,23:40,3.8,north,2.6
2021/06/17,23:50,4.0,north,2.6
